Starlink 31014

operational
NORAD ID: 58538 Int'l Des: 2023-192 Owner: SPXS Country: US Constellation: starlink
LEOCIRCULAR

Starlink 31014について

説明を読み込み中...

リアルタイム位置

3D地球を読み込み中...

次回通過

高度履歴

Altitude vs Time

uPlot chart will show altitude changes over time

軌道要素

1 58538U 23192H 25258.44534479 .00007877 00000-0 27771-3 0 9994
2 58538 53.1600 156.8055 0001344 92.1573 267.9582 15.30210811 99150
Epoch: Sep 15, 2025 • Age: 23 hours

現在のステータス

高度 479.3 km
速度 7.63 km/s
衛星直下点 -14.14°S, 6.02°W
打ち上げ日 Dec 8, 2023
運用期間 1.7 years
タイプ internet

技術仕様

分類 Payload
質量 730.00 kg
乾燥質量 700.00 kg
総質量 730.00 kg
長さ 0.30 m
直径 4.10 m
スパン 29.00 m
形状 Box + pan
製造者 SPXS
バスタイプ Starlink V2M
フェーズステータス In Orbit
所有者/国 SPXS/US

大規模コンステレーション

Loading constellations...